User: anonymous   Login
Location: Eastlake (historical)
(39.0077°N, 122.6678°W)
Time: 00:35:15
(UTC+00:00)
Language:

Cosmos 2227 - Orbit

View from above orbital plane
View from above orbital plane
View from above satellite
View from above satellite

Ground track
Ground track

The orbit data is extracted from the following two-line orbital elements,

1 22284U 92093A   21058.74978211 -.00000290  00000-0 -12865-3 0  9994
2 22284  70.9764 282.0587 0021306 286.5731  73.3050 14.13326886453607
Epoch (UTC): 27 February 2021 17:59:41
Eccentricity: 0.0021306
inclination: 70.9764°
perigee height: 832 km
apogee height: 863 km
right ascension of ascending node: 282.0587°
argument of perigee: 286.5731°
revolutions per day: 14.13326886
mean anomaly at epoch: 73.3050°
orbit number at epoch: 45360

The dashed part of the orbit path shows where the satellite is in the earth's shadow,  

DLR